Regional Weather Roundup
Issued by NWS Raleigh/Durham, NC

Current Version | Previous Version | Text Only | Print | Product List | Glossary On
Versions: 1 2 3 4 5 6 7 8 9 10 11 12 13 14 15 16 17 18 19 20 21 22 23 24 25 26 27 28 29 30 31 32 33 34 35 36 37 38 39 40 41 42 43 44 45 46 47 48 49 50
000
ASUS42 KRAH 051210
RWRRAH
NORTH CAROLINA WEATHER ROUNDUP
NATIONAL WEATHER SERVICE RALEIGH NC
800 AM EDT TUE MAY 05 2015

NOTE: "FAIR" INDICATES FEW OR NO CLOUDS BELOW 12,000 FEET WITH NO
SIGNIFICANT WEATHER AND/OR OBSTRUCTIONS TO VISIBILITY.

NCZ001-053-055-056-065-067-051300-
WESTERN NORTH CAROLINA

CITY           SKY/WX    TMP DP  RH WIND       PRES   REMARKS
ASHEVILLE      SUNNY     56  51  84 NW5       30.38R
JEFFERSON      SUNNY     54  46  76 CALM      30.39R
MORGANTON      SUNNY     56  55  97 CALM      30.39R
HICKORY        SUNNY     60  55  83 CALM      30.34R
RUTHERFORDTON  SUNNY     57  55  91 CALM      30.36R
MOUNT AIRY       N/A     60  56  85 CALM      30.36R
BOONE          SUNNY     49  47  96 CALM      30.41R
$$

NCZ021-022-025-041-071-084-088-051300-
CENTRAL NORTH CAROLINA

CITY           SKY/WX    TMP DP  RH WIND       PRES   REMARKS
CHARLOTTE      SUNNY     60  55  83 CALM      30.36R
GREENSBORO     MOSUNNY   62  55  77 SW7       30.34R
WINSTON-SALEM  SUNNY     62  55  77 S5        30.35R
RALEIGH-DURHAM MOSUNNY   62  56  80 SW7       30.36R
FORT BRAGG     MOSUNNY   60  56  89 CALM      30.35R
FAYETTEVILLE   SUNNY     61  57  87 CALM      30.36R
BURLINGTON     SUNNY     61  55  81 S5        30.34R
LAURINBURG     SUNNY     59  54  83 CALM      30.36R
$$

NCZ011-015-027-028-043-044-047-080-103-051300-
NORTHEASTERN NORTH CAROLINA

CITY           SKY/WX    TMP DP  RH WIND       PRES   REMARKS
ROCKY MT-WILSO MOSUNNY   60  56  86 CALM      30.36R
GREENVILLE     MOSUNNY   64  54  68 W3        30.37R
WASHINGTON     SUNNY     60  56  85 CALM      30.37R
ELIZABETH CITY SUNNY     65  57  75 SW8       30.36R
MANTEO         MOSUNNY   63  56  80 W5        30.37R
CAPE HATTERAS  SUNNY     64  58  80 SW3       30.37R
$$

NCZ078-087-090-091-093-098-101-051300-
SOUTHEASTERN NORTH CAROLINA

CITY           SKY/WX    TMP DP  RH WIND       PRES   REMARKS
LUMBERTON      SUNNY     60  57  89 CALM      30.36R
GOLDSBORO      SUNNY     59  53  81 CALM      30.35R
KINSTON        SUNNY     63  55  77 CALM      30.38R
KENANSVILLE    SUNNY     57  55  91 CALM      30.38R
NEW BERN       SUNNY     61  57  87 CALM      30.38R
CHERRY POINT   SUNNY     62  57  83 CALM      30.38R
BEAUFORT       SUNNY     69  58  67 MISG      30.37R
JACKSONVILLE   SUNNY     61  57  87 CALM      30.36R
WILMINGTON     SUNNY     61  57  87 CALM      30.36R
$$




USA.gov is the U.S. government's official web portal to all federal, state and local government web resources and services.